Location: *
(46.3500°N, 10.9000°E)
Time: 00:33:22
(UTC+00:00)

X-37B - Pass Details

Date: 14 August 2022
Orbit: 330 x 340 km, 45.0° (Epoch: 02 September)

Event Time Altitude Azimuth Distance (km) Brightness Sun altitude
Exits shadow 02:34:29 47° 221° (SW) 460 0.5 -15.3°
Maximum altitude 02:34:49 51° 192° (SSW) 436 0.5 -15.3°
Drops below altitude 10° 02:37:37 10° 115° (ESE) 1,282 3.5 -14.9°
Sets 02:39:39 0° 110° (ESE) 2,120 4.7 -14.7°
